Bryce Canyon, UT

8:41 PM MDT on March 24, 2017 (GMT -0600)
Bryce Canyon

Weather History for KBCE - January, 2014

Change the Weather History Date:

Tuesday, January 28, 2014

  Actual Average Record
Temperature  
Mean Temperature 29 °F -  
Max Temperature 39 °F 37 °F 51 °F (1976)
Min Temperature 16 °F 11 °F -12 °F (1979)
Degree Days  
Heating Degree Days 36    
Moisture  
Dew Point 14 °F    
Average Humidity 56    
Maximum Humidity 71    
Minimum Humidity 34    
Precipitation  
Precipitation 0.00 in - - ()
Sea Level Pressure  
Sea Level Pressure 30.13 in    
Wind  
Wind Speed 9 mph (NW)    
Max Wind Speed 15 mph    
Max Gust Speed -    
Visibility 10 miles    
Events      
Averages and records for this station are not official NWS values.
T = Trace of Precipitation, MM = Missing Value Source: NWS Daily Summary

Daily Weather History Graph

Daily Weather History Graph

Search for Another Location

Airport or City:

Trip Planner

Search our weather history database for the weather conditions in past years. The results will help you decide how hot, cold, wet, or windy it might be!

Date:

Astronomy

Jan. 28, 2014 Rise Set
Actual Time 7:35 AM MST 5:48 PM MST
Civil Twilight 7:07 AM MST 6:15 PM MST
Nautical Twilight 6:36 AM MST 6:47 PM MST
Astronomical Twilight 6:05 AM MST 7:18 PM MST
Moon 5:20 AM MST (1/28) 3:42 PM MST (1/28)
Length of Visible Light 11h 08m
Length of Day
10h 12m
Waning Crescent, 7% of the Moon is Illuminated
Jan 28
Waning Crescent
Jan 30
New
Feb 6
First Quarter
Feb 14
Full
Feb 22
Last Quarter

Hourly Weather History & Observations

Time (MST) Temp. Windchill Dew Point Humidity Pressure Visibility Wind Dir Wind Speed Gust Speed Precip Events Conditions
12:53 AM 30.9 °F 20.2 °F 17.1 °F 57% 29.96 in 10.0 mi NW 15.0 mph - N/A   Clear
1:53 AM 30.9 °F 20.2 °F 17.1 °F 57% 30.00 in 10.0 mi NW 15.0 mph - N/A   Clear
2:53 AM 28.0 °F 18.1 °F 17.1 °F 63% 30.01 in 10.0 mi North 11.5 mph - N/A   Clear
3:53 AM 25.0 °F 15.5 °F 16.0 °F 69% 30.04 in 10.0 mi WNW 9.2 mph - N/A   Clear
4:53 AM 27.0 °F 18.7 °F 14.0 °F 58% 30.05 in 10.0 mi NW 8.1 mph - N/A   Clear
5:53 AM 23.0 °F 13.9 °F 14.0 °F 68% 30.11 in 10.0 mi NNW 8.1 mph - N/A   Clear
6:53 AM 23.0 °F 13.9 °F 14.0 °F 68% 30.13 in 10.0 mi NW 8.1 mph - N/A   Clear
7:53 AM 24.1 °F 15.2 °F 14.0 °F 65% 30.15 in 10.0 mi NW 8.1 mph - N/A   Partly Cloudy
8:53 AM 27.0 °F 18.0 °F 14.0 °F 58% 30.15 in 10.0 mi NNW 9.2 mph - N/A   Clear
9:53 AM 30.0 °F 24.1 °F 18.0 °F 61% 30.17 in 10.0 mi WSW 5.8 mph - N/A   Clear
10:53 AM 32.0 °F 25.6 °F 17.1 °F 54% 30.18 in 10.0 mi West 6.9 mph - N/A   Clear
11:53 AM 36.0 °F - 10.9 °F 36% 30.16 in 10.0 mi Calm Calm - N/A   Clear
12:53 PM 37.9 °F 34.4 °F 14.0 °F 38% 30.12 in 10.0 mi North 4.6 mph - N/A   Clear
1:53 PM 39.0 °F 34.8 °F 12.9 °F 34% 30.10 in 10.0 mi NW 5.8 mph - N/A   Clear
2:53 PM 39.9 °F 35.8 °F 16.0 °F 38% 30.09 in 10.0 mi NNW 5.8 mph - N/A   Clear
3:53 PM 39.0 °F - 12.9 °F 34% 30.11 in 10.0 mi Calm Calm - N/A   Clear
4:53 PM 34.0 °F - 21.0 °F 59% 30.12 in 10.0 mi Calm Calm - N/A   Clear
5:53 PM 30.9 °F 24.3 °F 15.1 °F 52% 30.17 in 10.0 mi WNW 6.9 mph - N/A   Clear
6:53 PM 26.1 °F 17.6 °F 15.1 °F 63% 30.22 in 10.0 mi West 8.1 mph - N/A   Clear
7:53 PM 27.0 °F 23.0 °F 10.9 °F 51% 30.22 in 10.0 mi NW 3.5 mph - N/A   Clear
8:53 PM 19.0 °F 10.0 °F 10.9 °F 71% 30.25 in 10.0 mi West 6.9 mph - N/A   Clear
9:53 PM 19.0 °F 12.3 °F 10.0 °F 68% 30.24 in 10.0 mi Variable 4.6 mph - N/A   Clear
10:53 PM 19.9 °F 13.4 °F 8.1 °F 60% 30.22 in 10.0 mi West 4.6 mph - N/A   Clear
11:53 PM 16.0 °F - 7.0 °F 68% 30.23 in 10.0 mi Calm Calm - N/A   Clear